, CO

(GMT )
Cottonwood Pass

Weather History for K7BM - January, 2014

Change the Weather History Date:

Wednesday, January 8, 2014

  Actual Average Record
Temperature  
Mean Temperature 29 °F -  
Max Temperature 32 °F - - ()
Min Temperature 26 °F - - ()
Degree Days  
Heating Degree Days 36    
Moisture  
Dew Point 14 °F    
Average Humidity 52    
Maximum Humidity 74    
Minimum Humidity 38    
Precipitation  
Precipitation 0.00 in - - ()
Sea Level Pressure  
Sea Level Pressure 30.00 in    
Wind  
Wind Speed 8 mph (NW)    
Max Wind Speed 20 mph    
Max Gust Speed 31 mph    
Visibility 10 miles    
Events Snow    
T = Trace of Precipitation, MM = Missing Value Source: NWS Daily Summary

Daily Weather History Graph

Daily Weather History Graph

Search for Another Location

Airport or City:

Trip Planner

Search our weather history database for the weather conditions in past years. The results will help you decide how hot, cold, wet, or windy it might be!

Date:

Astronomy

Jan. 08, 2014 Rise Set
Actual Time 7:23 AM MST 5:00 PM MST
Civil Twilight 6:53 AM MST 5:29 PM MST
Nautical Twilight 6:20 AM MST 6:02 PM MST
Astronomical Twilight 5:48 AM MST 6:35 PM MST
Moon 11:52 AM MST (1/8) 12:33 AM MST (1/8)
Length of Visible Light 10h 35m
Length of Day
9h 36m
First Quarter, 56% of the Moon is Illuminated
Jan 8
First Quarter
Jan 15
Full
Jan 23
Last Quarter
Jan 30
New
Feb 6
First Quarter

Hourly Weather History & Observations

Time (MST) Temp. Windchill Dew Point Humidity Pressure Visibility Wind Dir Wind Speed Gust Speed Precip Events Conditions
12:12 AM - - - N/A% 29.98 in 10.0 mi NW 9.2 mph - N/A   Overcast
12:32 AM - - - N/A% 29.98 in 10.0 mi NNW 8.1 mph - N/A   Overcast
12:51 AM - - - N/A% 29.98 in 10.0 mi NW 9.2 mph - N/A   Overcast
1:14 AM - - - N/A% 29.98 in 10.0 mi WNW 11.5 mph 17.3 mph N/A   Overcast
1:32 AM - - - N/A% 29.98 in 10.0 mi NNW 8.1 mph - N/A   Overcast
1:53 AM - - - N/A% 29.99 in 10.0 mi NNW 6.9 mph 16.1 mph N/A   Overcast
2:13 AM - - - N/A% 30.00 in 10.0 mi NNW 8.1 mph - N/A   Overcast
2:35 AM - - - N/A% 30.00 in 10.0 mi WNW 6.9 mph - N/A   Overcast
2:51 AM - - - N/A% 30.00 in 10.0 mi NNW 5.8 mph 19.6 mph N/A   Overcast
3:11 AM - - - N/A% 30.00 in 10.0 mi NW 6.9 mph - N/A   Overcast
3:32 AM - - - N/A% 29.99 in 10.0 mi NNW 8.1 mph 24.2 mph N/A   Overcast
3:55 AM - - - N/A% 29.99 in 10.0 mi WNW 8.1 mph 19.6 mph N/A   Overcast
4:11 AM - - - N/A% 30.00 in 10.0 mi WNW 15.0 mph 25.3 mph N/A   Unknown
4:31 AM - - - N/A% 29.98 in 10.0 mi WNW 13.8 mph 21.9 mph N/A   Unknown
4:54 AM - - - N/A% 29.98 in 10.0 mi NNW 9.2 mph 17.3 mph N/A   Overcast
5:12 AM - - - N/A% 29.98 in 10.0 mi WNW 12.7 mph 21.9 mph N/A   Overcast
5:35 AM - - - N/A% 29.99 in 10.0 mi WNW 13.8 mph 23.0 mph N/A   Overcast
5:53 AM - - - N/A% 29.98 in 10.0 mi WNW 10.4 mph 18.4 mph N/A   Overcast
6:15 AM - - - N/A% 29.98 in 10.0 mi WNW 11.5 mph 20.7 mph N/A   Mostly Cloudy
6:33 AM - - - N/A% 29.99 in 10.0 mi WNW 10.4 mph 19.6 mph N/A   Overcast
6:55 AM - - - N/A% 30.00 in 10.0 mi West 16.1 mph 24.2 mph N/A   Overcast
7:15 AM - - - N/A% 30.00 in 10.0 mi WNW 8.1 mph 19.6 mph N/A   Overcast
7:33 AM - - - N/A% 30.01 in 10.0 mi WNW 13.8 mph 21.9 mph N/A   Overcast
7:53 AM - - - N/A% 30.02 in 10.0 mi West 15.0 mph 23.0 mph N/A   Overcast
8:12 AM - - - N/A% 30.03 in 10.0 mi West 11.5 mph 20.7 mph N/A   Mostly Cloudy
8:34 AM - - - N/A% 30.04 in 10.0 mi WNW 8.1 mph - N/A   Overcast
8:55 AM 26.6 °F - 14.0 °F 59% 30.05 in 10.0 mi Calm Calm - N/A   Mostly Cloudy
9:15 AM 28.4 °F 22.2 °F 14.0 °F 55% 30.05 in 10.0 mi ESE 5.8 mph - N/A   Overcast
9:31 AM 28.4 °F 24.6 °F 14.0 °F 55% 30.06 in 10.0 mi SE 3.5 mph - N/A   Overcast
9:54 AM 30.2 °F 24.3 °F 12.2 °F 47% 30.06 in 10.0 mi WSW 5.8 mph - N/A   Mostly Cloudy
10:12 AM 30.2 °F 25.4 °F 10.4 °F 44% 30.06 in 10.0 mi West 4.6 mph - N/A   Scattered Clouds
10:35 AM 30.2 °F 23.4 °F 10.4 °F 44% 30.05 in 10.0 mi WSW 6.9 mph 20.7 mph N/A   Clear
10:55 AM 30.2 °F 21.3 °F 10.4 °F 44% 30.04 in 10.0 mi WSW 10.4 mph 16.1 mph N/A   Clear
11:15 AM 30.2 °F 20.2 °F 10.4 °F 44% 30.02 in 10.0 mi West 12.7 mph 24.2 mph N/A   Clear
11:31 AM 30.2 °F 18.9 °F 10.4 °F 44% 30.01 in 10.0 mi West 16.1 mph 25.3 mph N/A   Clear
11:55 AM 30.2 °F 21.9 °F 10.4 °F 44% 30.00 in 10.0 mi West 9.2 mph 23.0 mph N/A   Clear
12:15 PM 30.2 °F 25.4 °F 10.4 °F 44% 30.00 in 10.0 mi West 4.6 mph 18.4 mph N/A   Scattered Clouds
12:33 PM 32.0 °F - 12.2 °F 44% 29.98 in 10.0 mi Calm Calm - N/A   Mostly Cloudy
12:50 PM 32.0 °F 26.4 °F 10.4 °F 41% 29.98 in 10.0 mi WNW 5.8 mph - N/A   Scattered Clouds
1:15 PM 32.0 °F 22.5 °F 8.6 °F 38% 29.97 in 10.0 mi WNW 12.7 mph 28.8 mph N/A   Overcast
1:33 PM 32.0 °F 20.1 °F 8.6 °F 38% 29.96 in 10.0 mi WSW 19.6 mph 31.1 mph N/A   Overcast
1:55 PM 32.0 °F 21.2 °F 8.6 °F 38% 29.96 in 10.0 mi West 16.1 mph 23.0 mph N/A   Overcast
2:10 PM 32.0 °F 24.8 °F 8.6 °F 38% 29.96 in 10.0 mi NW 8.1 mph 21.9 mph N/A   Mostly Cloudy
2:34 PM 32.0 °F 27.5 °F 10.4 °F 41% 29.97 in 10.0 mi WNW 4.6 mph 17.3 mph N/A   Mostly Cloudy
2:55 PM 32.0 °F - 12.2 °F 44% 29.97 in 10.0 mi Calm Calm - N/A   Mostly Cloudy
3:13 PM 32.0 °F - 12.2 °F 44% 29.97 in 10.0 mi Calm Calm - N/A   Mostly Cloudy
3:35 PM 32.0 °F 26.4 °F 14.0 °F 48% 29.97 in 10.0 mi North 5.8 mph - N/A   Overcast
3:51 PM 30.2 °F 24.3 °F 19.4 °F 64% 29.98 in 3.0 mi North 5.8 mph - N/A Snow Light Snow
4:12 PM 32.0 °F 24.8 °F 14.0 °F 48% 29.98 in 10.0 mi WNW 8.1 mph 17.3 mph N/A   Mostly Cloudy
4:35 PM 30.2 °F 25.4 °F 14.0 °F 51% 29.98 in 10.0 mi NNW 4.6 mph 20.7 mph N/A   Scattered Clouds
4:52 PM 30.2 °F 24.3 °F 14.0 °F 51% 29.98 in 10.0 mi NNW 5.8 mph - N/A   Clear
5:11 PM 30.2 °F 26.7 °F 14.0 °F 51% 29.98 in 10.0 mi North 3.5 mph - N/A   Clear
5:35 PM 30.2 °F - 14.0 °F 51% 29.99 in 10.0 mi Calm Calm - N/A   Mostly Cloudy
5:55 PM 30.2 °F 25.4 °F 14.0 °F 51% 30.00 in 10.0 mi North 4.6 mph - N/A   Overcast
6:12 PM 28.4 °F 24.6 °F 14.0 °F 55% 30.00 in 10.0 mi NW 3.5 mph - N/A   Overcast
6:32 PM 30.2 °F 25.4 °F 14.0 °F 51% 30.00 in 10.0 mi West 4.6 mph - N/A   Mostly Cloudy
6:52 PM 30.2 °F 25.4 °F 14.0 °F 51% 30.00 in 10.0 mi North 4.6 mph - N/A   Scattered Clouds
7:15 PM 28.4 °F 23.3 °F 15.8 °F 59% 30.00 in 10.0 mi NNW 4.6 mph - N/A   Clear
7:32 PM 28.4 °F 22.2 °F 17.6 °F 64% 30.00 in 10.0 mi NNW 5.8 mph - N/A   Clear
7:52 PM 28.4 °F 21.2 °F 19.4 °F 69% 30.01 in 10.0 mi West 6.9 mph - N/A   Clear
8:15 PM 28.4 °F 23.3 °F 17.6 °F 64% 30.01 in 10.0 mi North 4.6 mph - N/A   Scattered Clouds
8:35 PM 28.4 °F 23.3 °F 17.6 °F 64% 30.02 in 10.0 mi NW 4.6 mph - N/A   Mostly Cloudy
8:54 PM 26.6 °F 20.0 °F 19.4 °F 74% 30.01 in 10.0 mi NNW 5.8 mph - N/A   Overcast
9:14 PM 26.6 °F - 19.4 °F 74% 30.01 in 10.0 mi Calm Calm - N/A   Overcast
9:32 PM 26.6 °F 21.2 °F 17.6 °F 69% 30.01 in 10.0 mi North 4.6 mph - N/A   Scattered Clouds
9:50 PM 26.6 °F 21.2 °F 17.6 °F 69% 30.00 in 10.0 mi North 4.6 mph - N/A   Scattered Clouds
10:11 PM 26.6 °F 20.0 °F 14.0 °F 59% 30.00 in 10.0 mi North 5.8 mph - N/A   Scattered Clouds
10:32 PM 26.6 °F 22.6 °F 14.0 °F 59% 30.00 in 10.0 mi North 3.5 mph - N/A   Scattered Clouds
10:51 PM 28.4 °F 23.3 °F 14.0 °F 55% 30.00 in 10.0 mi NW 4.6 mph - N/A   Mostly Cloudy
11:14 PM 28.4 °F 22.2 °F 14.0 °F 55% 29.99 in 10.0 mi NW 5.8 mph - N/A   Scattered Clouds
11:34 PM 28.4 °F 19.7 °F 14.0 °F 55% 29.99 in 10.0 mi NW 9.2 mph 16.1 mph N/A   Mostly Cloudy
11:51 PM 28.4 °F 23.3 °F 14.0 °F 55% 29.98 in 10.0 mi NNW 4.6 mph - N/A   Scattered Clouds